Temperature
14 14 14 15 15 15 15 15 15 15 16 16 17 17 17 17 17 17 17 17 17 17 16 16 16 16 16 15 15 15 15 15 15 14 14 14 14 14
14 14 14 14 14 15 15 15 15 15 15 16 16 17 17 17 17 17 17 17 17 16 16 16 16 16 15 15 15 15 15 14 14 14 14 14 14 14
13 13 14 14 14 14 14 15 15 15 15 15 15 16 16 16 17 17 17 17 16 16 16 16 15 15 15 15 15 14 14 14 14 14 14 14 13 13
13 13 13 14 14 14 14 14 14 14 14 15 15 15 15 16 16 16 16 16 16 16 16 15 15 15 15 15 14 14 14 14 14 14 13 13 13 13
12 13 13 13 13 14 14 14 14 14 14 14 14 15 15 15 15 15 15 15 15 15 15 15 15 14 14 14 14 14 14 14 13 13 13 13 13 12
12 12 13 13 13 13 14 14 14 14 14 14 14 14 14 14 15 15 15 15 15 15 14 14 14 14 14 14 14 13 13 13 13 13 13 12 12 12
12 12 13 13 13 13 13 14 13 13 14 14 14 14 14 14 14 14 14 14 14 14 14 14 13 13 13 13 13 13 13 13 13 13 12 12 12 12
12 12 12 13 13 13 13 13 13 13 13 13 13 13 13 14 14 14 14 13 13 13 13 13 13 13 13 13 13 13 12 12 12 12 12 12 12 12
12 12 12 12 13 13 13 13 13 13 13 13 13 13 13 13 13 13 13 13 13 13 13 12 12 12 12 12 12 12 12 12 12 12 12 12 12 11
11 11 12 12 12 13 13 13 13 13 13 13 13 13 13 13 13 13 13 13 12 12 12 12 11 11 11 11 12 12 12 11 11 11 11 11 11 11
11 11 12 12 12 12 12 13 13 13 13 13 13 13 13 13 13 13 13 12 12 12 11 12 11 11 11 11 11 11 11 11 11 11 11 11 11 11
11 11 11 12 12 12 12 12 13 13 13 13 13 13 13 13 13 13 13 12 12 11 11 11 11 11 10 10 10 10 10 10 10 10 10 10 10 10
11 11 11 12 12 12 12 12 12 13 13 13 13 12 12 12 12 12 12 12 12 12 12 11 11 11 11 10 10 10 10 10 10 10 10 10 10 10
11 11 11 12 12 12 12 12 12 12 12 12 12 12 12 12 12 12 12 12 12 12 12 12 12 11 11 10 10 10 10 9 9 9 9 10 10 10
11 11 11 11 12 12 12 12 12 12 12 12 12 12 12 12 12 12 12 11 11 12 12 11 12 11 11 11 11 10 10 9 9 9 9 9 9 9
11 11 11 11 11 11 11 12 11 12 12 12 11 11 11 11 11 11 11 11 11 11 11 11 11 11 11 11 11 10 10 10 10 9 9 9 8 8
11 11 11 11 11 11 11 11 11 11 11 11 11 11 11 11 11 11 11 11 11 11 11 11 11 10 10 10 10 10 10 9 9 9 9 8 8 8
11 11 11 11 11 11 11 11 11 11 11 11 11 11 11 11 11 11 11 11 11 11 11 11 10 10 10 10 10 9 9 9 9 9 9 8 8 8
11 11 11 11 11 11 11 11 11 11 11 11 11 11 11 11 11 11 11 11 11 10 10 10 10 10 10 10 10 10 9 9 9 9 9 8 8 8
11 11 11 11 11 11 11 11 11 11 11 11 11 11 11 11 11 10 10 10 10 10 10 10 10 10 10 11 10 10 10 9 9 9 9 8 8 9
11 11 11 11 11 11 11 11 11 11 11 11 11 11 11 11 10 10 10 10 10 10 10 10 10 9 9 9 9 9 9 9 9 8 8 8 8 8
11 11 11 11 11 11 11 11 11 11 11 11 11 11 11 11 10 10 10 10 10 10 10 9 9 9 9 9 9 10 9 9 9 9 9 8 8 8
12 11 11 11 11 11 11 11 11 11 11 11 11 11 11 10 10 10 10 10 10 10 9 9 9 9 9 9 9 9 9 8 8 8 9 9 9 9
Wind_Speed
9 11 10 9 9 9 9 8 7 7 9 9 7 9 10 11 12 14 14 19 21 20 19 17 16 15 14 12 11 10 10 10 9 8 7 6 5 4
7 9 10 9 9 9 10 9 8 8 7 6 6 7 8 9 12 14 13 17 20 20 19 18 17 16 15 14 13 12 11 11 10 9 7 6 6 5
7 9 10 10 9 9 9 10 9 8 9 5 3 5 8 9 8 10 11 12 14 19 19 18 17 17 16 16 15 13 12 11 10 9 9 8 7 6
8 8 9 8 10 9 9 11 10 9 8 8 5 6 7 8 9 9 8 9 10 16 17 17 17 17 17 16 16 14 13 12 12 11 9 9 8 7
7 8 8 8 10 9 10 10 9 9 8 7 7 5 4 6 8 7 8 7 9 13 15 15 16 17 16 16 16 15 14 14 13 11 10 9 9 7
7 7 8 8 9 10 10 10 9 9 9 8 7 7 5 6 8 8 7 6 6 8 10 12 15 16 16 16 16 15 15 14 13 12 11 11 10 8
6 6 7 7 8 8 8 9 10 9 8 8 8 7 7 8 9 7 8 7 6 5 7 8 10 10 11 14 14 14 14 14 14 13 12 11 10 8
6 6 6 8 9 10 11 11 11 12 11 9 8 9 9 9 8 9 9 8 5 6 7 6 6 7 7 9 13 15 15 14 14 13 12 11 10 9
6 5 5 5 7 8 10 12 13 13 12 11 11 11 10 11 11 11 10 9 5 7 7 5 5 6 6 10 14 15 15 14 14 13 12 12 11 11
5 5 6 6 6 6 8 9 11 11 12 12 11 10 10 10 11 11 10 8 7 6 5 4 5 5 6 8 13 14 14 14 13 13 13 12 12 11
4 5 5 6 4 6 8 9 9 8 7 8 7 8 10 12 11 10 11 11 7 5 4 4 5 5 4 5 9 13 13 13 13 13 13 12 11 11
4 4 4 4 4 5 7 8 8 6 7 7 8 10 12 14 16 13 12 11 8 5 6 6 8 6 4 3 5 10 11 12 13 13 12 12 12 9
5 4 3 3 4 4 6 6 6 6 6 7 7 8 9 9 10 9 9 10 10 6 9 8 8 7 6 5 5 6 8 9 10 10 12 13 11 7
5 5 3 2 2 2 2 4 6 6 5 6 6 6 7 7 7 8 8 6 5 7 13 11 7 8 7 7 5 6 7 8 8 8 10 12 10 8
4 5 4 3 1 1 5 6 5 5 5 6 6 5 5 6 7 7 8 8 8 8 11 10 8 9 7 6 7 8 7 7 8 7 8 9 9 9
2 2 2 3 3 4 4 4 3 3 4 5 6 5 5 6 7 8 8 8 7 6 6 7 8 9 6 6 7 8 8 7 8 8 8 7 8 9
4 2 1 1 2 3 3 3 3 4 4 5 6 6 6 7 7 7 7 7 6 7 7 5 6 5 4 6 7 7 8 7 8 9 8 8 8 9
4 2 1 1 1 1 2 3 3 4 5 5 6 6 7 7 7 6 6 7 8 8 8 7 7 6 4 2 2 7 7 8 7 9 8 8 8 8
3 3 2 2 2 2 2 3 3 4 4 5 6 6 7 7 8 7 7 7 7 7 8 8 8 7 7 7 5 6 7 7 8 8 8 8 8 7
5 4 3 3 3 4 4 4 4 5 5 6 7 7 8 8 8 8 7 8 8 8 7 7 7 7 7 5 5 6 8 8 8 8 8 7 6 3
6 5 5 5 5 5 5 5 5 6 6 6 7 8 8 8 8 8 7 9 8 8 8 7 5 3 3 2 4 5 7 7 5 6 7 7 7 7
7 7 6 6 6 6 6 6 7 7 7 7 7 7 8 8 8 9 8 9 8 8 8 7 7 6 6 7 6 7 7 7 6 6 7 7 6 6
9 9 8 8 8 7 8 9 9 8 8 8 8 8 8 8 8 8 9 9 8 8 8 8 8 7 7 7 6 6 7 8 7 7 9 14 16 14
Wind_Direction
238 232 228 224 220 217 214 212 213 219 222 217 205 210 210 209 180 195 202 189 191 192 191 191 188 186 184 183 183 181 175 172 170 169 174 175 176 177
241 235 229 224 220 217 214 213 216 221 229 217 206 204 203 204 194 204 204 174 185 187 187 186 185 184 181 178 174 168 166 165 164 166 169 167 163 154
244 238 232 225 219 216 214 212 214 216 224 220 202 202 198 200 185 194 188 182 184 181 182 182 181 179 176 171 168 166 165 164 166 165 165 160 151 147
251 244 236 226 220 216 213 213 212 212 215 213 200 199 204 194 183 180 174 175 173 170 173 174 173 171 169 168 166 164 163 162 161 161 161 158 153 147
257 246 240 231 225 218 214 212 210 210 212 210 201 189 189 180 170 164 163 157 156 156 159 163 166 165 165 164 162 160 159 158 157 157 156 152 150 146
263 252 245 238 233 224 217 213 208 206 205 204 197 185 177 174 169 163 157 154 152 151 147 152 154 155 157 158 158 157 157 157 155 153 151 148 146 143
267 255 250 247 250 240 228 215 209 206 202 201 198 190 182 175 177 171 163 150 146 150 142 144 147 149 153 155 156 157 158 158 156 152 149 148 145 144
275 265 252 239 236 236 238 231 220 211 206 202 201 196 190 181 170 167 162 159 160 164 151 146 152 149 151 153 154 157 158 156 155 153 152 151 148 146
283 275 264 251 239 237 225 222 221 217 215 210 205 199 189 182 173 173 174 168 157 154 146 143 147 144 138 144 152 157 157 156 156 157 157 154 150 146
286 280 271 264 254 248 232 223 220 215 212 213 213 204 192 182 180 176 167 147 127 142 147 140 147 140 135 138 149 154 156 158 160 160 157 153 152 152
287 287 285 271 264 256 242 228 219 212 205 207 205 192 175 171 167 161 157 155 152 156 163 143 145 135 137 144 148 152 154 159 161 160 158 158 161 167
298 290 289 285 278 255 239 224 212 197 184 178 177 172 172 168 167 174 170 166 156 158 172 156 152 150 147 155 157 162 162 160 161 164 166 168 173 189
309 301 295 290 288 265 247 224 194 179 176 170 167 163 164 168 173 176 177 173 168 161 166 158 160 167 155 153 169 176 172 169 170 172 174 178 188 213
311 310 322 351 313 279 219 148 144 155 159 158 159 159 160 162 163 164 161 157 157 152 162 163 160 171 162 158 162 173 180 182 182 180 178 176 191 208
334 2 7 13 21 110 121 129 150 155 147 149 151 146 145 145 140 135 126 116 106 123 155 165 161 170 175 173 164 168 177 187 191 189 186 187 193 193
331 23 65 60 64 75 100 111 115 128 137 136 132 127 129 138 142 142 140 135 123 119 137 159 167 170 177 168 167 171 176 178 184 193 194 199 205 206
327 311 337 73 93 91 85 90 102 118 125 134 137 138 137 139 143 147 150 151 149 147 144 141 140 149 163 172 177 179 180 182 181 187 195 205 212 214
300 277 258 137 120 125 121 120 123 130 140 143 144 146 147 145 144 148 159 162 157 155 154 153 149 147 149 149 228 190 189 189 184 185 199 212 219 215
267 259 231 203 187 177 164 157 149 148 149 152 154 156 156 155 155 159 164 163 159 159 161 166 175 181 187 194 188 223 203 188 185 191 204 215 227 223
242 243 232 213 206 199 186 175 166 162 165 165 164 165 164 164 165 169 171 169 165 163 165 175 188 197 207 206 178 181 212 199 195 203 205 213 226 233
235 230 227 219 212 208 198 188 184 180 176 174 169 169 171 172 173 175 171 164 173 174 178 183 174 164 168 161 181 183 183 207 234 221 214 212 220 227
236 230 224 221 213 208 202 197 194 189 186 185 178 178 179 181 179 179 178 177 185 187 184 164 154 174 193 205 210 194 181 183 202 239 257 250 234 235
232 229 223 218 215 210 208 205 204 199 195 195 189 187 187 187 187 187 187 189 189 186 177 170 172 187 201 208 215 212 200 197 199 207 224 226 234 246
Height
1485 1487 1489 1491 1493 1496 1499 1503 1507 1509 1511 1513 1516 1519 1522 1526 1528 1531 1535 1536 1539 1542 1545 1547 1549 1551 1553 1554 1556 1557 1558 1559 1560 1560 1561 1561 1561 1561
1481 1482 1484 1486 1488 1491 1494 1497 1500 1503 1506 1508 1511 1514 1517 1520 1523 1527 1530 1532 1535 1538 1541 1543 1546 1548 1550 1552 1553 1554 1556 1557 1557 1558 1558 1558 1559 1558
1477 1478 1479 1481 1483 1485 1488 1491 1494 1497 1500 1503 1506 1509 1512 1515 1517 1521 1524 1527 1530 1533 1536 1539 1542 1544 1546 1548 1550 1552 1553 1554 1555 1555 1556 1556 1556 1556
1473 1474 1475 1476 1478 1480 1483 1485 1488 1491 1495 1497 1500 1503 1506 1509 1512 1515 1519 1522 1525 1528 1531 1535 1537 1540 1543 1545 1547 1548 1550 1551 1552 1552 1553 1554 1554 1554
1470 1470 1471 1472 1474 1476 1478 1480 1483 1486 1489 1492 1495 1498 1501 1504 1507 1510 1514 1517 1520 1523 1527 1530 1533 1536 1539 1541 1543 1545 1546 1548 1549 1550 1550 1551 1551 1551
1467 1467 1467 1468 1470 1472 1473 1475 1478 1481 1483 1486 1489 1492 1495 1498 1502 1505 1509 1512 1515 1519 1522 1525 1529 1532 1534 1537 1539 1541 1543 1544 1545 1546 1547 1548 1548 1549
1464 1464 1464 1464 1466 1467 1469 1471 1474 1476 1478 1480 1484 1486 1489 1492 1496 1500 1503 1507 1511 1514 1517 1521 1524 1527 1530 1533 1535 1537 1539 1540 1542 1543 1544 1545 1546 1546
1461 1461 1461 1461 1462 1463 1465 1467 1469 1471 1474 1476 1478 1481 1483 1487 1491 1494 1498 1502 1506 1510 1514 1517 1520 1523 1526 1529 1531 1533 1535 1537 1539 1540 1541 1542 1543 1544
1458 1458 1458 1458 1458 1459 1461 1462 1464 1467 1469 1472 1473 1475 1478 1481 1485 1489 1493 1497 1501 1505 1510 1513 1517 1520 1523 1525 1528 1530 1532 1534 1536 1537 1538 1539 1541 1542
1456 1455 1455 1454 1455 1456 1457 1458 1460 1462 1464 1467 1470 1472 1475 1478 1481 1485 1489 1494 1498 1503 1507 1510 1514 1517 1520 1523 1525 1527 1529 1531 1533 1535 1536 1537 1538 1539
1454 1453 1452 1452 1451 1452 1453 1454 1456 1458 1460 1463 1466 1468 1471 1475 1478 1482 1485 1490 1494 1499 1503 1506 1510 1514 1518 1520 1522 1525 1527 1529 1531 1533 1534 1535 1536 1537
1452 1451 1449 1448 1448 1448 1449 1451 1452 1454 1456 1459 1461 1464 1467 1470 1474 1478 1481 1486 1489 1495 1499 1503 1507 1511 1515 1518 1520 1522 1525 1527 1528 1530 1532 1533 1534 1536
1450 1449 1447 1446 1446 1445 1446 1448 1449 1451 1453 1456 1458 1461 1464 1468 1471 1475 1479 1483 1487 1490 1494 1499 1503 1508 1511 1514 1517 1520 1522 1524 1526 1527 1529 1531 1532 1534
1449 1447 1446 1444 1444 1444 1444 1445 1447 1449 1451 1453 1456 1459 1462 1465 1469 1473 1477 1481 1485 1489 1492 1496 1500 1504 1508 1511 1514 1517 1520 1522 1524 1525 1527 1528 1529 1531
1448 1446 1445 1444 1444 1443 1444 1445 1446 1448 1450 1452 1454 1457 1461 1464 1467 1471 1475 1479 1483 1487 1490 1494 1498 1502 1506 1509 1511 1513 1516 1518 1521 1523 1525 1526 1527 1528
1449 1447 1446 1445 1445 1444 1444 1445 1447 1448 1450 1452 1454 1457 1460 1463 1466 1470 1474 1478 1482 1485 1489 1493 1497 1500 1504 1507 1509 1511 1513 1515 1517 1520 1521 1523 1524 1525
1450 1449 1447 1447 1446 1446 1446 1447 1447 1449 1451 1453 1455 1457 1459 1462 1466 1469 1473 1477 1481 1484 1487 1491 1494 1498 1501 1504 1506 1509 1511 1513 1515 1516 1518 1520 1521 1522
1451 1450 1449 1448 1448 1448 1448 1448 1449 1450 1452 1453 1456 1458 1460 1463 1466 1469 1473 1477 1480 1483 1486 1489 1492 1495 1498 1501 1503 1506 1508 1510 1512 1513 1514 1516 1518 1519
1451 1451 1450 1450 1449 1449 1450 1450 1451 1452 1453 1455 1457 1459 1461 1464 1466 1469 1472 1476 1479 1482 1485 1487 1490 1493 1496 1498 1500 1502 1505 1506 1508 1509 1510 1512 1514 1515
1451 1450 1450 1450 1450 1450 1450 1451 1452 1452 1454 1455 1457 1460 1462 1464 1467 1469 1472 1474 1477 1480 1482 1485 1488 1491 1494 1497 1498 1498 1500 1502 1504 1506 1507 1508 1509 1510
1449 1448 1448 1448 1449 1449 1450 1450 1451 1453 1454 1455 1457 1459 1461 1463 1466 1468 1471 1473 1476 1478 1480 1483 1485 1488 1490 1492 1494 1495 1496 1498 1500 1502 1504 1505 1505 1506
1446 1446 1446 1446 1446 1447 1447 1448 1450 1451 1452 1454 1456 1458 1460 1462 1464 1467 1469 1471 1474 1476 1479 1481 1482 1485 1487 1489 1491 1493 1493 1494 1495 1497 1498 1499 1501 1503
1441 1441 1442 1442 1442 1443 1444 1445 1447 1448 1450 1452 1453 1455 1457 1460 1462 1464 1467 1469 1471 1474 1476 1477 1479 1481 1484 1486 1488 1490 1491 1491 1492 1492 1493 1494 1495 1496